| time (UTC) | temp F | wind direction | speed MPH | gust MPH | rain 1hr in | rain 24hr in | rain mn in | humidity % | barometer mb |
| 20260510004513 | 53 | 65 | 0.0 | 0.0 | 0.00 | 0.00 | 0.00 | 81 | 1013.8 |
| 20260510004205 | 53 | 65 | 0.0 | 0.0 | 0.00 | 0.00 | 0.00 | 80 | 1014.8 |
| 20260510003705 | 53 | 65 | 0.0 | 0.0 | 0.00 | 0.00 | 0.00 | 80 | 1014.9 |
| 20260510003205 | 53 | 65 | 0.0 | 0.0 | 0.00 | 0.00 | 0.00 | 79 | 1015.0 |
| 20260510002705 | 54 | 65 | 0.0 | 0.0 | 0.00 | 0.00 | 0.00 | 79 | 1015.0 |
| 20260510002512 | 54 | 65 | 0.0 | 0.0 | 0.00 | 0.00 | 0.00 | 79 | 1014.1 |
| 20260510002205 | 54 | 65 | 0.0 | 0.0 | 0.00 | 0.00 | 0.00 | 79 | 1015.1 |
| 20260510001706 | 54 | 58 | 0.0 | 0.0 | 0.00 | 0.00 | 0.00 | 79 | 1015.0 |
| 20260510001205 | 54 | 76 | 0.0 | 0.0 | 0.00 | 0.00 | 0.00 | 79 | 1015.1 |
| 20260510000705 | 54 | 64 | 0.0 | 0.0 | 0.00 | 0.00 | 0.00 | 79 | 1015.2 |
| 20260510000511 | 54 | 61 | 0.0 | 0.0 | 0.00 | 0.00 | 0.00 | 79 | 1014.1 |
| 20260510000205 | 54 | 76 | 0.0 | 0.0 | 0.00 | 0.00 | 0.00 | 78 | 1015.2 |
| 20260509235705 | 54 | 94 | 0.0 | 0.0 | 0.00 | 0.00 | 0.00 | 78 | 1015.3 |
| 20260509235206 | 54 | 94 | 0.0 | 0.0 | 0.00 | 0.00 | 0.00 | 78 | 1015.4 |
| 20260509233512 | 55 | 62 | 0.0 | 0.0 | 0.00 | 0.00 | 0.00 | 77 | 1014.5 |
| 20260509233206 | 55 | 89 | 0.0 | 0.0 | 0.00 | 0.00 | 0.00 | 77 | 1015.5 |
| 20260509232512 | 55 | 48 | 0.0 | 0.0 | 0.00 | 0.00 | 0.00 | 77 | 1014.5 |
| 20260509232205 | 55 | 77 | 0.0 | 0.0 | 0.00 | 0.00 | 0.00 | 77 | 1015.5 |
| 20260509231705 | 55 | 83 | 0.0 | 0.0 | 0.00 | 0.00 | 0.00 | 76 | 1015.6 |
| 20260509231513 | 55 | 81 | 0.0 | 0.0 | 0.00 | 0.00 | 0.00 | 76 | 1014.5 |
| 20260509231206 | 55 | 72 | 0.0 | 0.0 | 0.00 | 0.00 | 0.00 | 76 | 1015.7 |
| 20260509230705 | 55 | 72 | 0.0 | 0.0 | 0.00 | 0.00 | 0.00 | 76 | 1015.7 |
| 20260509230205 | 55 | 83 | 0.0 | 0.0 | 0.00 | 0.00 | 0.00 | 76 | 1015.6 |
| 20260509225705 | 55 | 89 | 0.0 | 0.0 | 0.00 | 0.00 | 0.00 | 76 | 1015.7 |
| 20260509225512 | 56 | 89 | 0.0 | 0.0 | 0.00 | 0.00 | 0.00 | 76 | 1014.6 |
| 20260509224705 | 56 | 96 | 0.0 | 0.0 | 0.00 | 0.00 | 0.00 | 75 | 1015.7 |
| 20260509224512 | 56 | 94 | 0.0 | 0.0 | 0.00 | 0.00 | 0.00 | 75 | 1014.7 |
| 20260509223705 | 56 | 87 | 0.0 | 0.0 | 0.00 | 0.00 | 0.00 | 75 | 1015.8 |
| 20260509223512 | 56 | 130 | 0.0 | 0.0 | 0.00 | 0.00 | 0.00 | 75 | 1014.7 |
| 20260509223205 | 56 | 90 | 0.0 | 0.0 | 0.00 | 0.00 | 0.00 | 75 | 1015.8 |
| 20260509222705 | 56 | 82 | 0.0 | 0.0 | 0.00 | 0.00 | 0.00 | 75 | 1015.9 |
| 20260509222205 | 56 | 69 | 0.0 | 0.0 | 0.00 | 0.00 | 0.00 | 75 | 1015.9 |
| 20260509221205 | 56 | 77 | 0.0 | 0.0 | 0.00 | 0.00 | 0.00 | 74 | 1016.1 |
| 20260509220205 | 57 | 90 | 0.0 | 0.0 | 0.00 | 0.00 | 0.00 | 73 | 1016.1 |
| 20260509215705 | 57 | 65 | 0.0 | 0.0 | 0.00 | 0.00 | 0.00 | 73 | 1016.0 |
| 20260509215512 | 57 | 88 | 0.0 | 0.0 | 0.00 | 0.00 | 0.00 | 73 | 1014.9 |
| 20260509215206 | 57 | 89 | 0.0 | 1.0 | 0.00 | 0.00 | 0.00 | 73 | 1016.0 |
| 20260509214705 | 57 | 75 | 0.0 | 0.0 | 0.00 | 0.00 | 0.00 | 73 | 1016.1 |
| 20260509214512 | 57 | 87 | 0.0 | 0.0 | 0.00 | 0.00 | 0.00 | 72 | 1015.0 |
| 20260509214205 | 57 | 75 | 0.0 | 0.0 | 0.00 | 0.00 | 0.00 | 73 | 1016.1 |
| 20260509213705 | 57 | 80 | 0.0 | 0.0 | 0.00 | 0.00 | 0.00 | 73 | 1016.2 |
| 20260509213512 | 57 | 77 | 0.0 | 0.0 | 0.00 | 0.00 | 0.00 | 73 | 1015.2 |
| 20260509213205 | 57 | 83 | 0.0 | 0.0 | 0.00 | 0.00 | 0.00 | 72 | 1016.4 |
| 20260509212705 | 58 | 76 | 0.0 | 0.0 | 0.00 | 0.00 | 0.00 | 72 | 1016.5 |
| 20260509212512 | 58 | 63 | 0.0 | 0.0 | 0.00 | 0.00 | 0.00 | 72 | 1015.4 |
| 20260509212205 | 58 | 81 | 0.0 | 0.0 | 0.00 | 0.00 | 0.00 | 72 | 1016.5 |
| 20260509211705 | 58 | 96 | 0.0 | 0.0 | 0.00 | 0.00 | 0.00 | 72 | 1016.4 |
| 20260509211512 | 58 | 77 | 0.0 | 0.0 | 0.00 | 0.00 | 0.00 | 72 | 1015.3 |
| 20260509211205 | 58 | 77 | 0.0 | 0.0 | 0.00 | 0.00 | 0.00 | 71 | 1016.4 |
| 20260509210705 | 58 | 86 | 0.0 | 0.0 | 0.00 | 0.00 | 0.00 | 71 | 1016.4 |
| 20260509210512 | 58 | 82 | 0.0 | 0.0 | 0.00 | 0.00 | 0.00 | 71 | 1015.3 |
| 20260509210205 | 58 | 95 | 0.0 | 0.0 | 0.00 | 0.00 | 0.00 | 71 | 1016.4 |
| 20260509205705 | 58 | 92 | 0.0 | 0.0 | 0.00 | 0.00 | 0.00 | 71 | 1016.5 |
| 20260509204705 | 59 | 101 | 0.0 | 0.0 | 0.00 | 0.00 | 0.00 | 69 | 1016.5 |
| 20260509204512 | 59 | 89 | 0.0 | 0.0 | 0.00 | 0.00 | 0.00 | 70 | 1015.4 |
| 20260509204205 | 59 | 88 | 0.0 | 0.0 | 0.00 | 0.00 | 0.00 | 69 | 1016.4 |
| 20260509203705 | 59 | 84 | 0.0 | 7.0 | 0.00 | 0.00 | 0.00 | 69 | 1016.4 |
| 20260509203512 | 59 | 92 | 0.0 | 7.0 | 0.00 | 0.00 | 0.00 | 69 | 1015.3 |
| 20260509203205 | 59 | 70 | 0.0 | 2.0 | 0.00 | 0.00 | 0.00 | 68 | 1016.3 |
| 20260509202705 | 59 | 76 | 0.0 | 0.0 | 0.00 | 0.00 | 0.00 | 68 | 1016.4 |
| 20260509202512 | 59 | 64 | 0.0 | 0.0 | 0.00 | 0.00 | 0.00 | 68 | 1015.4 |
| 20260509202205 | 59 | 82 | 0.0 | 0.0 | 0.00 | 0.00 | 0.00 | 67 | 1016.4 |
| 20260509201704 | 60 | 91 | 0.0 | 0.0 | 0.00 | 0.00 | 0.00 | 67 | 1016.4 |
| 20260509201512 | 60 | 93 | 0.0 | 0.0 | 0.00 | 0.00 | 0.00 | 67 | 1015.3 |
| 20260509201205 | 60 | 90 | 0.0 | 0.0 | 0.00 | 0.00 | 0.00 | 67 | 1016.3 |
| 20260509200705 | 60 | 90 | 0.0 | 0.0 | 0.00 | 0.00 | 0.00 | 67 | 1016.3 |
| 20260509200512 | 60 | 94 | 0.0 | 0.0 | 0.00 | 0.00 | 0.00 | 67 | 1015.3 |
| 20260509195705 | 60 | 96 | 0.0 | 7.0 | 0.00 | 0.00 | 0.00 | 66 | 1016.3 |
| 20260509195512 | 60 | 103 | 0.0 | 7.0 | 0.00 | 0.00 | 0.00 | 66 | 1015.2 |
| 20260509195205 | 60 | 92 | 0.0 | 1.0 | 0.00 | 0.00 | 0.00 | 66 | 1016.2 |
| 20260509194705 | 60 | 91 | 0.0 | 3.0 | 0.00 | 0.00 | 0.00 | 66 | 1016.3 |
| 20260509194512 | 60 | 60 | 1.0 | 8.0 | 0.00 | 0.00 | 0.00 | 66 | 1015.2 |
| 20260509194205 | 60 | 91 | 1.0 | 8.0 | 0.00 | 0.00 | 0.00 | 66 | 1016.3 |
| 20260509193705 | 60 | 95 | 0.0 | 2.0 | 0.00 | 0.00 | 0.00 | 66 | 1016.4 |
| 20260509193512 | 60 | 93 | 0.0 | 2.0 | 0.00 | 0.00 | 0.00 | 66 | 1015.3 |
| 20260509193205 | 60 | 83 | 0.0 | 1.0 | 0.00 | 0.00 | 0.00 | 66 | 1016.3 |
| 20260509192705 | 61 | 74 | 0.0 | 0.0 | 0.00 | 0.00 | 0.00 | 65 | 1016.3 |
| 20260509192512 | 61 | 87 | 0.0 | 0.0 | 0.00 | 0.00 | 0.00 | 65 | 1015.2 |
| 20260509191705 | 61 | 88 | 0.0 | 2.0 | 0.00 | 0.00 | 0.00 | 65 | 1016.3 |
| 20260509190705 | 61 | 91 | 0.0 | 0.0 | 0.00 | 0.00 | 0.00 | 65 | 1016.3 |
| 20260509190512 | 61 | 82 | 0.0 | 0.0 | 0.00 | 0.00 | 0.00 | 65 | 1015.2 |
| 20260509190205 | 61 | 76 | 0.0 | 0.0 | 0.00 | 0.00 | 0.00 | 65 | 1016.3 |
| 20260509185705 | 61 | 88 | 0.0 | 0.0 | 0.00 | 0.00 | 0.00 | 65 | 1016.3 |
| 20260509185512 | 61 | 81 | 0.0 | 0.0 | 0.00 | 0.00 | 0.00 | 64 | 1015.3 |
| 20260509184705 | 61 | 77 | 0.0 | 0.0 | 0.00 | 0.00 | 0.00 | 64 | 1016.3 |
| 20260509184512 | 61 | 73 | 0.0 | 0.0 | 0.00 | 0.00 | 0.00 | 64 | 1015.2 |
| 20260509184205 | 61 | 65 | 0.0 | 0.0 | 0.00 | 0.00 | 0.00 | 64 | 1016.3 |
| 20260509183705 | 61 | 77 | 0.0 | 0.0 | 0.00 | 0.00 | 0.00 | 64 | 1016.2 |
| 20260509183513 | 62 | 83 | 0.0 | 0.0 | 0.00 | 0.00 | 0.00 | 64 | 1015.2 |
| 20260509183204 | 62 | 102 | 0.0 | 2.0 | 0.00 | 0.00 | 0.00 | 64 | 1016.2 |
| 20260509182705 | 62 | 92 | 0.0 | 2.0 | 0.00 | 0.00 | 0.00 | 64 | 1016.2 |
| 20260509182512 | 62 | 82 | 0.0 | 8.0 | 0.00 | 0.00 | 0.00 | 63 | 1015.2 |
| 20260509182204 | 62 | 96 | 1.0 | 8.0 | 0.00 | 0.00 | 0.00 | 63 | 1016.2 |
| 20260509181512 | 62 | 123 | 0.0 | 1.0 | 0.00 | 0.00 | 0.00 | 64 | 1015.1 |
| 20260509180705 | 62 | 63 | 0.0 | 6.0 | 0.00 | 0.00 | 0.00 | 63 | 1016.1 |
| 20260509180512 | 62 | 79 | 0.0 | 6.0 | 0.00 | 0.00 | 0.00 | 63 | 1015.1 |
| 20260509180204 | 62 | 68 | 0.0 | 2.0 | 0.00 | 0.00 | 0.00 | 63 | 1016.1 |
| 20260509175705 | 62 | 77 | 0.0 | 2.0 | 0.00 | 0.00 | 0.00 | 63 | 1016.0 |
| 20260509175205 | 62 | 92 | 1.0 | 7.0 | 0.00 | 0.00 | 0.00 | 62 | 1016.0 |
| 20260509174705 | 62 | 98 | 0.0 | 1.0 | 0.00 | 0.00 | 0.00 | 62 | 1015.9 |
| 20260509174512 | 62 | 68 | 0.0 | 1.0 | 0.00 | 0.00 | 0.00 | 62 | 1014.9 |
| 20260509173705 | 63 | 77 | 0.0 | 2.0 | 0.00 | 0.00 | 0.00 | 62 | 1015.9 |
| 20260509173512 | 62 | 93 | 0.0 | 2.0 | 0.00 | 0.00 | 0.00 | 62 | 1014.8 |
| 20260509173205 | 63 | 71 | 0.0 | 0.0 | 0.00 | 0.00 | 0.00 | 62 | 1015.9 |
| 20260509172512 | 63 | 99 | 0.0 | 0.0 | 0.00 | 0.00 | 0.00 | 63 | 1014.8 |
| 20260509172205 | 63 | 79 | 0.0 | 0.0 | 0.00 | 0.00 | 0.00 | 63 | 1015.8 |
| 20260509171705 | 63 | 84 | 0.0 | 3.0 | 0.00 | 0.00 | 0.00 | 62 | 1015.8 |
| 20260509171511 | 63 | 86 | 0.0 | 3.0 | 0.00 | 0.00 | 0.00 | 62 | 1014.8 |
| 20260509171205 | 63 | 59 | 0.0 | 8.0 | 0.00 | 0.00 | 0.00 | 62 | 1015.8 |
| 20260509170705 | 63 | 81 | 0.0 | 1.0 | 0.00 | 0.00 | 0.00 | 63 | 1015.8 |
| 20260509170512 | 63 | 110 | 0.0 | 4.0 | 0.00 | 0.00 | 0.00 | 62 | 1014.8 |
| 20260509170204 | 63 | 78 | 0.0 | 9.0 | 0.00 | 0.00 | 0.00 | 63 | 1015.8 |
| 20260509165704 | 63 | 81 | 0.0 | 3.0 | 0.00 | 0.00 | 0.00 | 62 | 1015.8 |
| 20260509165511 | 63 | 93 | 0.0 | 3.0 | 0.00 | 0.00 | 0.00 | 62 | 1014.8 |
| 20260509164705 | 63 | 86 | 0.0 | 2.0 | 0.00 | 0.00 | 0.00 | 62 | 1015.9 |
| 20260509164512 | 62 | 70 | 0.0 | 7.0 | 0.00 | 0.00 | 0.00 | 62 | 1014.8 |
| 20260509164205 | 63 | 82 | 0.0 | 7.0 | 0.00 | 0.00 | 0.00 | 62 | 1016.0 |
| 20260509163705 | 63 | 80 | 1.0 | 7.0 | 0.00 | 0.00 | 0.00 | 61 | 1016.0 |
| 20260509163512 | 63 | 90 | 0.0 | 1.0 | 0.00 | 0.00 | 0.00 | 61 | 1015.0 |
| 20260509163204 | 63 | 88 | 0.0 | 3.0 | 0.00 | 0.00 | 0.00 | 61 | 1016.1 |
| 20260509162512 | 63 | 73 | 0.0 | 4.0 | 0.00 | 0.00 | 0.00 | 61 | 1015.0 |
| 20260509162205 | 63 | 58 | 1.0 | 3.0 | 0.00 | 0.00 | 0.00 | 61 | 1016.0 |
| 20260509161705 | 63 | 59 | 0.0 | 10.0 | 0.00 | 0.00 | 0.00 | 61 | 1016.0 |
| 20260509161512 | 63 | 85 | 1.0 | 10.0 | 0.00 | 0.00 | 0.00 | 61 | 1015.0 |
| 20260509161205 | 63 | 78 | 0.0 | 12.0 | 0.00 | 0.00 | 0.00 | 61 | 1016.1 |
| 20260509160705 | 63 | 70 | 0.0 | 3.0 | 0.00 | 0.00 | 0.00 | 60 | 1016.1 |
| 20260509160205 | 63 | 78 | 1.0 | 8.0 | 0.00 | 0.00 | 0.00 | 60 | 1016.2 |
| 20260509155705 | 63 | 71 | 0.0 | 1.0 | 0.00 | 0.00 | 0.00 | 60 | 1016.2 |
| 20260509155511 | 63 | 51 | 0.0 | 2.0 | 0.00 | 0.00 | 0.00 | 60 | 1015.2 |
| 20260509155204 | 63 | 70 | 0.0 | 1.0 | 0.00 | 0.00 | 0.00 | 61 | 1016.2 |
| 20260509154705 | 63 | 68 | 0.0 | 2.0 | 0.00 | 0.00 | 0.00 | 61 | 1016.3 |
| 20260509154512 | 63 | 96 | 0.0 | 1.0 | 0.00 | 0.00 | 0.00 | 61 | 1015.3 |
| 20260509154205 | 63 | 82 | 1.0 | 6.0 | 0.00 | 0.00 | 0.00 | 61 | 1016.4 |
| 20260509153705 | 63 | 93 | 1.0 | 8.0 | 0.00 | 0.00 | 0.00 | 61 | 1016.5 |
| 20260509153512 | 63 | 124 | 1.0 | 8.0 | 0.00 | 0.00 | 0.00 | 61 | 1015.5 |
| 20260509153205 | 63 | 71 | 1.0 | 5.0 | 0.00 | 0.00 | 0.00 | 61 | 1016.6 |
| 20260509152704 | 63 | 64 | 0.0 | 2.0 | 0.00 | 0.00 | 0.00 | 62 | 1016.6 |
| 20260509152512 | 63 | 69 | 0.0 | 2.0 | 0.00 | 0.00 | 0.00 | 61 | 1015.5 |
| 20260509152204 | 63 | 80 | 0.0 | 5.0 | 0.00 | 0.00 | 0.00 | 61 | 1016.6 |
| 20260509151704 | 63 | 84 | 1.0 | 8.0 | 0.00 | 0.00 | 0.00 | 60 | 1016.6 |
| 20260509151512 | 63 | 72 | 0.0 | 8.0 | 0.00 | 0.00 | 0.00 | 60 | 1015.6 |
| 20260509151204 | 64 | 86 | 0.0 | 8.0 | 0.00 | 0.00 | 0.00 | 61 | 1016.7 |
| 20260509150704 | 64 | 83 | 0.0 | 7.0 | 0.00 | 0.00 | 0.00 | 60 | 1016.7 |
| 20260509150512 | 64 | 62 | 0.0 | 7.0 | 0.00 | 0.00 | 0.00 | 59 | 1015.6 |
| 20260509150204 | 64 | 77 | 0.0 | 3.0 | 0.00 | 0.00 | 0.00 | 60 | 1016.7 |
| 20260509145704 | 63 | 71 | 0.0 | 9.0 | 0.00 | 0.00 | 0.00 | 61 | 1016.7 |
| 20260509145204 | 63 | 71 | 0.0 | 12.0 | 0.00 | 0.00 | 0.00 | 62 | 1016.7 |
| 20260509144705 | 63 | 77 | 0.0 | 3.0 | 0.00 | 0.00 | 0.00 | 60 | 1016.7 |
| 20260509144511 | 64 | 110 | 0.0 | 4.0 | 0.00 | 0.00 | 0.00 | 61 | 1015.8 |
| 20260509144205 | 63 | 66 | 1.0 | 3.0 | 0.00 | 0.00 | 0.00 | 61 | 1016.7 |
| 20260509143512 | 63 | 60 | 0.0 | 3.0 | 0.00 | 0.00 | 0.00 | 61 | 1015.8 |
| 20260509142705 | 63 | 86 | 2.0 | 8.0 | 0.00 | 0.00 | 0.00 | 60 | 1016.8 |
| 20260509142511 | 63 | 5 | 1.0 | 8.0 | 0.00 | 0.00 | 0.00 | 61 | 1015.9 |
| 20260509142205 | 63 | 35 | 0.0 | 8.0 | 0.00 | 0.00 | 0.00 | 60 | 1016.9 |
| 20260509141704 | 63 | 47 | 0.0 | 3.0 | 0.00 | 0.00 | 0.00 | 60 | 1016.9 |
| 20260509141204 | 63 | 46 | 2.0 | 12.0 | 0.00 | 0.00 | 0.00 | 61 | 1017.0 |
| 20260509140705 | 64 | 90 | 1.0 | 8.0 | 0.00 | 0.00 | 0.00 | 59 | 1017.2 |
| 20260509140511 | 64 | 82 | 1.0 | 8.0 | 0.00 | 0.00 | 0.00 | 60 | 1016.2 |
| 20260509140205 | 63 | 85 | 1.0 | 3.0 | 0.00 | 0.00 | 0.00 | 61 | 1017.3 |
| 20260509135704 | 63 | 94 | 1.0 | 7.0 | 0.00 | 0.00 | 0.00 | 60 | 1017.3 |
| 20260509135205 | 63 | 80 | 2.0 | 10.0 | 0.00 | 0.00 | 0.00 | 60 | 1017.3 |
| 20260509134705 | 63 | 358 | 0.0 | 7.0 | 0.00 | 0.00 | 0.00 | 60 | 1017.3 |
| 20260509134512 | 63 | 62 | 0.0 | 7.0 | 0.00 | 0.00 | 0.00 | 60 | 1016.4 |
| 20260509134204 | 63 | 64 | 0.0 | 8.0 | 0.00 | 0.00 | 0.00 | 60 | 1017.5 |
| 20260509133704 | 63 | 36 | 1.0 | 7.0 | 0.00 | 0.00 | 0.00 | 60 | 1017.4 |
| 20260509133511 | 63 | 88 | 1.0 | 12.0 | 0.00 | 0.00 | 0.00 | 59 | 1016.5 |
| 20260509133204 | 63 | 75 | 3.0 | 12.0 | 0.00 | 0.00 | 0.00 | 59 | 1017.5 |
| 20260509132705 | 63 | 63 | 0.0 | 3.0 | 0.00 | 0.00 | 0.00 | 59 | 1017.6 |
| 20260509132511 | 63 | 66 | 0.0 | 3.0 | 0.00 | 0.00 | 0.00 | 58 | 1016.6 |
| 20260509132205 | 63 | 71 | 0.0 | 0.0 | 0.00 | 0.00 | 0.00 | 58 | 1017.6 |
| 20260509131704 | 63 | 81 | 0.0 | 9.0 | 0.00 | 0.00 | 0.00 | 57 | 1017.7 |
| 20260509131511 | 63 | 20 | 0.0 | 9.0 | 0.00 | 0.00 | 0.00 | 58 | 1016.7 |
| 20260509131205 | 63 | 50 | 1.0 | 9.0 | 0.00 | 0.00 | 0.00 | 57 | 1017.7 |
| 20260509130705 | 63 | 76 | 0.0 | 3.0 | 0.00 | 0.00 | 0.00 | 58 | 1017.8 |
| 20260509130511 | 63 | 68 | 0.0 | 5.0 | 0.00 | 0.00 | 0.00 | 58 | 1016.8 |
| 20260509130204 | 63 | 129 | 0.0 | 3.0 | 0.00 | 0.00 | 0.00 | 58 | 1017.8 |
| 20260509125204 | 64 | 83 | 0.0 | 3.0 | 0.00 | 0.00 | 0.00 | 58 | 1017.9 |
| 20260509124704 | 64 | 38 | 1.0 | 5.0 | 0.00 | 0.00 | 0.00 | 57 | 1017.9 |
| 20260509124512 | 64 | 87 | 0.0 | 2.0 | 0.00 | 0.00 | 0.00 | 55 | 1016.9 |
| 20260509124204 | 64 | 84 | 0.0 | 0.0 | 0.00 | 0.00 | 0.00 | 56 | 1017.9 |
| 20260509123705 | 64 | 74 | 0.0 | 0.0 | 0.00 | 0.00 | 0.00 | 62 | 1018.0 |
| 20260509123510 | 63 | 63 | 0.0 | 0.0 | 0.00 | 0.00 | 0.00 | 61 | 1017.0 |
| 20260509122705 | 63 | 41 | 0.0 | 1.0 | 0.00 | 0.00 | 0.00 | 58 | 1018.1 |
| 20260509122511 | 63 | 69 | 0.0 | 1.0 | 0.00 | 0.00 | 0.00 | 58 | 1017.2 |
| 20260509122204 | 62 | 57 | 0.0 | 0.0 | 0.00 | 0.00 | 0.00 | 56 | 1018.2 |
| 20260509121704 | 63 | 73 | 0.0 | 0.0 | 0.00 | 0.00 | 0.00 | 58 | 1018.2 |
| 20260509121204 | 63 | 44 | 0.0 | 3.0 | 0.00 | 0.00 | 0.00 | 58 | 1018.3 |
| 20260509120705 | 63 | 69 | 0.0 | 0.0 | 0.00 | 0.00 | 0.00 | 58 | 1018.3 |
| 20260509120204 | 62 | 43 | 0.0 | 0.0 | 0.00 | 0.00 | 0.00 | 59 | 1018.4 |
| 20260509115704 | 62 | 53 | 0.0 | 1.0 | 0.00 | 0.00 | 0.00 | 60 | 1018.5 |
| 20260509115511 | 62 | 10 | 0.0 | 0.0 | 0.00 | 0.00 | 0.00 | 58 | 1017.5 |
| 20260509114205 | 62 | 85 | 0.0 | 3.0 | 0.00 | 0.00 | 0.00 | 60 | 1018.5 |
| 20260509113705 | 62 | 108 | 0.0 | 3.0 | 0.00 | 0.00 | 0.00 | 57 | 1018.6 |
| 20260509113512 | 62 | 88 | 0.0 | 0.0 | 0.00 | 0.00 | 0.00 | 58 | 1017.6 |
| 20260509112704 | 62 | 114 | 0.0 | 0.0 | 0.00 | 0.00 | 0.00 | 58 | 1018.7 |
| 20260509112513 | 62 | 123 | 0.0 | 0.0 | 0.00 | 0.00 | 0.00 | 60 | 1017.8 |
| 20260509112205 | 62 | 76 | 0.0 | 0.0 | 0.00 | 0.00 | 0.00 | 58 | 1018.9 |
| 20260509111704 | 62 | 77 | 0.0 | 1.0 | 0.00 | 0.00 | 0.00 | 58 | 1018.9 |
| 20260509111513 | 62 | 98 | 0.0 | 1.0 | 0.00 | 0.00 | 0.00 | 58 | 1017.8 |
| 20260509111204 | 62 | 84 | 0.0 | 3.0 | 0.00 | 0.00 | 0.00 | 59 | 1018.9 |
| 20260509110705 | 62 | 99 | 0.0 | 8.0 | 0.00 | 0.00 | 0.00 | 58 | 1018.9 |
| 20260509110512 | 62 | 98 | 0.0 | 4.0 | 0.00 | 0.00 | 0.00 | 58 | 1018.0 |
| 20260509110204 | 62 | 71 | 1.0 | 3.0 | 0.00 | 0.00 | 0.00 | 57 | 1018.9 |
| 20260509104704 | 63 | 101 | 1.0 | 7.0 | 0.00 | 0.00 | 0.00 | 58 | 1019.0 |
| 20260509104512 | 63 | 74 | 0.0 | 2.0 | 0.00 | 0.00 | 0.00 | 60 | 1018.0 |
| 20260509104205 | 63 | 94 | 0.0 | 3.0 | 0.00 | 0.00 | 0.00 | 57 | 1019.1 |
| 20260509103704 | 63 | 103 | 0.0 | 0.0 | 0.00 | 0.00 | 0.00 | 58 | 1019.1 |
| 20260509103204 | 63 | 182 | 0.0 | 0.0 | 0.00 | 0.00 | 0.00 | 59 | 1019.1 |
| 20260509102512 | 61 | 85 | 0.0 | 0.0 | 0.00 | 0.00 | 0.00 | 60 | 1018.1 |
| 20260509102204 | 61 | 84 | 0.0 | 1.0 | 0.00 | 0.00 | 0.00 | 61 | 1019.2 |
| 20260509101705 | 60 | 70 | 0.0 | 5.0 | 0.00 | 0.00 | 0.00 | 61 | 1019.3 |
| 20260509101512 | 60 | 87 | 0.0 | 6.0 | 0.00 | 0.00 | 0.00 | 61 | 1018.2 |
| 20260509101204 | 60 | 80 | 0.0 | 7.0 | 0.00 | 0.00 | 0.00 | 62 | 1019.3 |
| 20260509100704 | 60 | 95 | 1.0 | 8.0 | 0.00 | 0.00 | 0.00 | 61 | 1019.3 |
| 20260509100204 | 61 | 29 | 1.0 | 9.0 | 0.00 | 0.00 | 0.00 | 61 | 1019.4 |
| 20260509095704 | 61 | 73 | 0.0 | 5.0 | 0.00 | 0.00 | 0.00 | 59 | 1019.3 |
| 20260509095512 | 62 | 81 | 1.0 | 10.0 | 0.00 | 0.00 | 0.00 | 59 | 1018.3 |
| 20260509095205 | 62 | 79 | 2.0 | 10.0 | 0.00 | 0.00 | 0.00 | 60 | 1019.3 |
| 20260509094704 | 61 | 147 | 0.0 | 5.0 | 0.00 | 0.00 | 0.00 | 61 | 1019.3 |
| 20260509094512 | 61 | 85 | 0.0 | 2.0 | 0.00 | 0.00 | 0.00 | 62 | 1018.3 |
| 20260509094205 | 60 | 162 | 0.0 | 2.0 | 0.00 | 0.00 | 0.00 | 63 | 1019.3 |
| 20260509093705 | 60 | 98 | 0.0 | 1.0 | 0.00 | 0.00 | 0.00 | 63 | 1019.4 |
| 20260509093512 | 60 | 106 | 0.0 | 7.0 | 0.00 | 0.00 | 0.00 | 62 | 1018.4 |
| 20260509093205 | 60 | 107 | 1.0 | 7.0 | 0.00 | 0.00 | 0.00 | 63 | 1019.4 |
| 20260509092705 | 60 | 106 | 0.0 | 2.0 | 0.00 | 0.00 | 0.00 | 62 | 1019.4 |
| 20260509092512 | 60 | 88 | 0.0 | 2.0 | 0.00 | 0.00 | 0.00 | 61 | 1018.4 |
| 20260509092204 | 61 | 99 | 0.0 | 1.0 | 0.00 | 0.00 | 0.00 | 61 | 1019.5 |
| 20260509091704 | 60 | 121 | 0.0 | 0.0 | 0.00 | 0.00 | 0.00 | 64 | 1019.5 |
| 20260509091204 | 60 | 97 | 0.0 | 7.0 | 0.00 | 0.00 | 0.00 | 65 | 1019.5 |
| 20260509090705 | 59 | 87 | 0.0 | 8.0 | 0.00 | 0.00 | 0.00 | 64 | 1019.5 |
| 20260509090512 | 59 | 96 | 0.0 | 8.0 | 0.00 | 0.00 | 0.00 | 62 | 1018.5 |
| 20260509090204 | 60 | 93 | 0.0 | 2.0 | 0.00 | 0.00 | 0.00 | 63 | 1019.5 |
| 20260509085704 | 59 | 117 | 0.0 | 2.0 | 0.00 | 0.00 | 0.00 | 64 | 1019.5 |
| 20260509085512 | 59 | 70 | 0.0 | 2.0 | 0.00 | 0.00 | 0.00 | 65 | 1018.5 |
| 20260509085204 | 59 | 68 | 1.0 | 10.0 | 0.00 | 0.00 | 0.00 | 64 | 1019.5 |
| 20260509084704 | 59 | 105 | 0.0 | 1.0 | 0.00 | 0.00 | 0.00 | 65 | 1019.5 |
| 20260509084513 | 59 | 81 | 0.0 | 0.0 | 0.00 | 0.00 | 0.00 | 64 | 1018.6 |
| 20260509084204 | 58 | 120 | 0.0 | 0.0 | 0.00 | 0.00 | 0.00 | 69 | 1019.6 |
| 20260509083705 | 58 | 112 | 0.0 | 3.0 | 0.00 | 0.00 | 0.00 | 67 | 1019.6 |
| 20260509083512 | 58 | 104 | 0.0 | 4.0 | 0.00 | 0.00 | 0.00 | 66 | 1018.6 |
| 20260509083204 | 58 | 85 | 0.0 | 1.0 | 0.00 | 0.00 | 0.00 | 64 | 1019.6 |
| 20260509082204 | 58 | 81 | 0.0 | 1.0 | 0.00 | 0.00 | 0.00 | 66 | 1019.7 |
| 20260509081704 | 59 | 105 | 0.0 | 3.0 | 0.00 | 0.00 | 0.00 | 66 | 1019.6 |
| 20260509081513 | 59 | 121 | 0.0 | 3.0 | 0.00 | 0.00 | 0.00 | 66 | 1018.7 |
| 20260509081204 | 58 | 91 | 0.0 | 1.0 | 0.00 | 0.00 | 0.00 | 69 | 1019.7 |
| 20260509080704 | 58 | 68 | 0.0 | 1.0 | 0.00 | 0.00 | 0.00 | 68 | 1019.7 |
| 20260509080512 | 58 | 55 | 0.0 | 1.0 | 0.00 | 0.00 | 0.00 | 68 | 1018.7 |
| 20260509080205 | 58 | 79 | 0.0 | 3.0 | 0.00 | 0.00 | 0.00 | 68 | 1019.7 |
| 20260509075704 | 58 | 110 | 0.0 | 3.0 | 0.00 | 0.00 | 0.00 | 68 | 1019.7 |
| 20260509075512 | 58 | 92 | 0.0 | 8.0 | 0.00 | 0.00 | 0.00 | 67 | 1018.8 |
| 20260509075205 | 58 | 117 | 1.0 | 8.0 | 0.00 | 0.00 | 0.00 | 68 | 1019.8 |
| 20260509074704 | 58 | 82 | 0.0 | 8.0 | 0.00 | 0.00 | 0.00 | 70 | 1019.8 |
| 20260509074511 | 58 | 49 | 0.0 | 8.0 | 0.00 | 0.00 | 0.00 | 70 | 1018.8 |
| 20260509074204 | 58 | 95 | 0.0 | 3.0 | 0.00 | 0.00 | 0.00 | 69 | 1019.8 |
| 20260509073704 | 58 | 91 | 1.0 | 9.0 | 0.00 | 0.00 | 0.00 | 71 | 1019.7 |
| 20260509073512 | 57 | 97 | 0.0 | 11.0 | 0.00 | 0.00 | 0.00 | 72 | 1018.6 |
| 20260509073204 | 57 | 77 | 1.0 | 12.0 | 0.00 | 0.00 | 0.00 | 71 | 1019.7 |
| 20260509072704 | 57 | 73 | 0.0 | 9.0 | 0.00 | 0.00 | 0.00 | 72 | 1019.7 |
| 20260509072512 | 57 | 79 | 0.0 | 9.0 | 0.00 | 0.00 | 0.00 | 73 | 1018.7 |
| 20260509071704 | 57 | 62 | 1.0 | 6.0 | 0.00 | 0.00 | 0.00 | 74 | 1019.9 |
| 20260509071512 | 57 | 96 | 0.0 | 6.0 | 0.00 | 0.00 | 0.00 | 75 | 1018.8 |
| 20260509071204 | 57 | 84 | 0.0 | 0.0 | 0.00 | 0.00 | 0.00 | 75 | 1019.9 |
| 20260509070512 | 56 | 112 | 0.0 | 1.0 | 0.00 | 0.00 | 0.00 | 75 | 1018.8 |
| 20260509065513 | 55 | 85 | 1.0 | 4.0 | 0.00 | 0.00 | 0.00 | 76 | 1018.8 |
| 20260509065204 | 55 | 81 | 0.0 | 3.0 | 0.00 | 0.00 | 0.00 | 77 | 1019.9 |
| 20260509064704 | 55 | 96 | 0.0 | 2.0 | 0.00 | 0.00 | 0.00 | 78 | 1019.9 |
| 20260509064512 | 55 | 74 | 0.0 | 2.0 | 0.00 | 0.00 | 0.00 | 77 | 1018.8 |
| 20260509063512 | 54 | 54 | 0.0 | 2.0 | 0.00 | 0.00 | 0.00 | 79 | 1018.7 |
| 20260509063204 | 54 | 90 | 0.0 | 2.0 | 0.00 | 0.00 | 0.00 | 79 | 1019.8 |
| 20260509062704 | 54 | 89 | 0.0 | 1.0 | 0.00 | 0.00 | 0.00 | 81 | 1019.7 |
| 20260509062204 | 53 | 90 | 0.0 | 1.0 | 0.00 | 0.00 | 0.00 | 82 | 1019.7 |
| 20260509061705 | 53 | 65 | 0.0 | 1.0 | 0.00 | 0.00 | 0.00 | 82 | 1019.7 |
| 20260509061512 | 53 | 71 | 0.0 | 0.0 | 0.00 | 0.00 | 0.00 | 82 | 1018.5 |
| 20260509061204 | 52 | 70 | 0.0 | 0.0 | 0.00 | 0.00 | 0.00 | 82 | 1019.7 |
| 20260509060704 | 52 | 87 | 0.0 | 3.0 | 0.00 | 0.00 | 0.00 | 82 | 1019.8 |
| 20260509060512 | 52 | 75 | 0.0 | 1.0 | 0.00 | 0.00 | 0.00 | 83 | 1018.7 |
| 20260509055704 | 52 | 87 | 0.0 | 0.0 | 0.00 | 0.00 | 0.00 | 83 | 1019.8 |
| 20260509055512 | 51 | 81 | 0.0 | 0.0 | 0.00 | 0.00 | 0.00 | 83 | 1018.7 |
| 20260509055204 | 51 | 58 | 0.0 | 3.0 | 0.00 | 0.00 | 0.00 | 83 | 1019.8 |
| 20260509054703 | 51 | 89 | 0.0 | 0.0 | 0.00 | 0.00 | 0.00 | 83 | 1019.8 |
| 20260509054512 | 51 | 97 | 0.0 | 0.0 | 0.00 | 0.00 | 0.00 | 83 | 1018.6 |
| 20260509053704 | 51 | 83 | 0.0 | 0.0 | 0.00 | 0.00 | 0.00 | 84 | 1019.8 |
| 20260509053512 | 50 | 88 | 0.0 | 1.0 | 0.00 | 0.00 | 0.00 | 84 | 1018.6 |
| 20260509053204 | 50 | 60 | 0.0 | 1.0 | 0.00 | 0.00 | 0.00 | 84 | 1019.7 |
| 20260509052704 | 50 | 92 | 0.0 | 0.0 | 0.00 | 0.00 | 0.00 | 85 | 1019.7 |
| 20260509052512 | 50 | 89 | 0.0 | 0.0 | 0.00 | 0.00 | 0.00 | 85 | 1018.6 |
| 20260509052204 | 50 | 67 | 0.0 | 0.0 | 0.00 | 0.00 | 0.00 | 85 | 1019.7 |
| 20260509051704 | 49 | 77 | 0.0 | 0.0 | 0.00 | 0.00 | 0.00 | 86 | 1019.7 |
| 20260509051512 | 49 | 56 | 0.0 | 0.0 | 0.00 | 0.00 | 0.00 | 86 | 1018.6 |
| 20260509050706 | 49 | 52 | 0.0 | 1.0 | 0.00 | 0.00 | 0.00 | 87 | 1019.7 |
| 20260509050512 | 49 | 59 | 0.0 | 0.0 | 0.00 | 0.00 | 0.00 | 87 | 1018.6 |
| 20260509045512 | 48 | 69 | 0.0 | 0.0 | 0.00 | 0.00 | 0.00 | 88 | 1018.5 |
| 20260509045205 | 48 | 62 | 0.0 | 0.0 | 0.00 | 0.00 | 0.00 | 88 | 1019.7 |
| 20260509044512 | 47 | 50 | 0.0 | 0.0 | 0.00 | 0.00 | 0.00 | 89 | 1018.5 |
| 20260509044205 | 47 | 62 | 0.0 | 0.0 | 0.00 | 0.00 | 0.00 | 89 | 1019.6 |
| 20260509043512 | 47 | 65 | 0.0 | 0.0 | 0.00 | 0.00 | 0.00 | 92 | 1018.5 |
| 20260509043205 | 47 | 71 | 0.0 | 0.0 | 0.00 | 0.00 | 0.00 | 88 | 1019.7 |
| 20260509042706 | 47 | 56 | 0.0 | 0.0 | 0.00 | 0.00 | 0.00 | 88 | 1019.6 |
| 20260509042512 | 47 | 57 | 0.0 | 0.0 | 0.00 | 0.00 | 0.00 | 88 | 1018.5 |
| 20260509042206 | 47 | 57 | 0.0 | 0.0 | 0.00 | 0.00 | 0.00 | 88 | 1019.6 |
| 20260509041706 | 47 | 61 | 0.0 | 0.0 | 0.00 | 0.00 | 0.00 | 87 | 1019.6 |
| 20260509041512 | 47 | 46 | 0.0 | 0.0 | 0.00 | 0.00 | 0.00 | 87 | 1018.5 |
| 20260509040512 | 47 | 82 | 0.0 | 1.0 | 0.00 | 0.00 | 0.00 | 87 | 1018.5 |
| 20260509040206 | 48 | 63 | 0.0 | 1.0 | 0.00 | 0.00 | 0.00 | 87 | 1019.7 |
| 20260509035511 | 48 | 75 | 0.0 | 3.0 | 0.00 | 0.00 | 0.00 | 87 | 1018.6 |
| 20260509035206 | 48 | 46 | 0.0 | 3.0 | 0.00 | 0.00 | 0.00 | 86 | 1019.7 |
| 20260509034512 | 48 | 58 | 0.0 | 0.0 | 0.00 | 0.00 | 0.00 | 86 | 1018.5 |
| 20260509034205 | 48 | 71 | 0.0 | 1.0 | 0.00 | 0.00 | 0.00 | 86 | 1019.6 |
| 20260509033706 | 48 | 73 | 0.0 | 1.0 | 0.00 | 0.00 | 0.00 | 87 | 1019.6 |
| 20260509033511 | 48 | 34 | 0.0 | 0.0 | 0.00 | 0.00 | 0.00 | 87 | 1018.5 |
| 20260509033206 | 48 | 57 | 0.0 | 0.0 | 0.00 | 0.00 | 0.00 | 87 | 1019.7 |
| 20260509032705 | 48 | 70 | 0.0 | 0.0 | 0.00 | 0.00 | 0.00 | 86 | 1019.8 |
| 20260509032512 | 48 | 69 | 0.0 | 0.0 | 0.00 | 0.00 | 0.00 | 86 | 1018.6 |
| 20260509032205 | 48 | 73 | 0.0 | 0.0 | 0.00 | 0.00 | 0.00 | 86 | 1019.8 |
| 20260509031705 | 48 | 76 | 0.0 | 0.0 | 0.00 | 0.00 | 0.00 | 87 | 1019.8 |
| 20260509030705 | 48 | 45 | 0.0 | 0.0 | 0.00 | 0.00 | 0.00 | 87 | 1019.9 |
| 20260509030511 | 48 | 40 | 0.0 | 0.0 | 0.00 | 0.00 | 0.00 | 87 | 1018.7 |
| 20260509030206 | 48 | 34 | 0.0 | 0.0 | 0.00 | 0.00 | 0.00 | 87 | 1019.9 |
| 20260509025706 | 48 | 67 | 0.0 | 0.0 | 0.00 | 0.00 | 0.00 | 87 | 1019.9 |
| 20260509025512 | 48 | 79 | 0.0 | 0.0 | 0.00 | 0.00 | 0.00 | 87 | 1018.8 |
| 20260509024705 | 48 | 42 | 0.0 | 0.0 | 0.00 | 0.00 | 0.00 | 87 | 1020.0 |
| 20260509024512 | 48 | 53 | 0.0 | 1.0 | 0.00 | 0.00 | 0.00 | 87 | 1018.8 |
| 20260509023705 | 48 | 67 | 0.0 | 0.0 | 0.00 | 0.00 | 0.00 | 87 | 1020.0 |
| 20260509023512 | 48 | 71 | 0.0 | 0.0 | 0.00 | 0.00 | 0.00 | 88 | 1018.9 |
| 20260509023205 | 48 | 38 | 0.0 | 0.0 | 0.00 | 0.00 | 0.00 | 88 | 1020.1 |
| 20260509022705 | 48 | 13 | 0.0 | 2.0 | 0.00 | 0.00 | 0.00 | 88 | 1020.0 |
| 20260509022206 | 47 | 36 | 0.0 | 1.0 | 0.00 | 0.00 | 0.00 | 88 | 1020.0 |
| 20260509021705 | 47 | 39 | 0.0 | 0.0 | 0.00 | 0.00 | 0.00 | 88 | 1019.9 |
| 20260509021512 | 47 | 39 | 0.0 | 0.0 | 0.00 | 0.00 | 0.00 | 88 | 1018.8 |
| 20260509021205 | 47 | 39 | 0.0 | 0.0 | 0.00 | 0.00 | 0.00 | 89 | 1019.9 |
| 20260509020706 | 47 | 39 | 0.0 | 0.0 | 0.00 | 0.00 | 0.00 | 89 | 1020.0 |
| 20260509020511 | 47 | 46 | 0.0 | 0.0 | 0.00 | 0.00 | 0.00 | 89 | 1018.8 |
| 20260509020205 | 47 | 50 | 0.0 | 0.0 | 0.00 | 0.00 | 0.00 | 89 | 1020.1 |
| 20260509015705 | 47 | 42 | 0.0 | 0.0 | 0.00 | 0.00 | 0.00 | 89 | 1020.1 |
| 20260509015512 | 47 | 38 | 0.0 | 0.0 | 0.00 | 0.00 | 0.00 | 89 | 1018.9 |
| 20260509015205 | 47 | 47 | 0.0 | 0.0 | 0.00 | 0.00 | 0.00 | 89 | 1020.1 |
| 20260509014705 | 47 | 47 | 0.0 | 0.0 | 0.00 | 0.00 | 0.00 | 89 | 1020.1 |
| 20260509014512 | 47 | 40 | 0.0 | 0.0 | 0.00 | 0.00 | 0.00 | 89 | 1019.0 |
| 20260509014206 | 47 | 40 | 0.0 | 0.0 | 0.00 | 0.00 | 0.00 | 89 | 1020.2 |
| 20260509013705 | 47 | 38 | 0.0 | 0.0 | 0.00 | 0.00 | 0.00 | 89 | 1020.2 |
| 20260509013512 | 47 | 81 | 0.0 | 0.0 | 0.00 | 0.00 | 0.00 | 89 | 1019.0 |
| 20260509013205 | 47 | 70 | 0.0 | 0.0 | 0.00 | 0.00 | 0.00 | 90 | 1020.1 |
| 20260509012705 | 47 | 44 | 0.0 | 0.0 | 0.00 | 0.00 | 0.00 | 90 | 1020.1 |
| 20260509012512 | 47 | 44 | 0.0 | 0.0 | 0.00 | 0.00 | 0.00 | 90 | 1018.9 |
| 20260509012206 | 47 | 43 | 0.0 | 0.0 | 0.00 | 0.00 | 0.00 | 91 | 1020.1 |
| 20260509011512 | 47 | 66 | 0.0 | 0.0 | 0.00 | 0.00 | 0.00 | 91 | 1018.8 |
| 20260509011205 | 47 | 64 | 0.0 | 0.0 | 0.00 | 0.00 | 0.00 | 91 | 1020.0 |
| 20260509010706 | 46 | 95 | 0.0 | 0.0 | 0.00 | 0.00 | 0.00 | 91 | 1020.0 |
| 20260509010512 | 46 | 95 | 0.0 | 0.0 | 0.00 | 0.00 | 0.00 | 91 | 1018.9 |
| 20260509010205 | 46 | 95 | 0.0 | 0.0 | 0.00 | 0.00 | 0.00 | 92 | 1020.0 |
| 20260509005705 | 46 | 95 | 0.0 | 0.0 | 0.00 | 0.00 | 0.00 | 92 | 1020.1 |
| 20260509005512 | 46 | 95 | 0.0 | 0.0 | 0.00 | 0.00 | 0.00 | 92 | 1018.9 |
| 20260509004705 | 45 | 95 | 0.0 | 0.0 | 0.00 | 0.00 | 0.00 | 92 | 1020.0 |